Flag for United Kingdom Weather past 2 weeks in London, England, United Kingdom

Now
64 °F

Partly sunny.


Feels Like: 64 °F
Forecast: 54 / 62 °F
Wind: 9 mph from West

Location: Northolt

Current Time: Sep 23, 2014 at 5:39:33 PM

Latest Report: Sep 23, 2014 at 4:50 PM


Visibility: N/A

Pressure: 30.07 "Hg

Humidity: 43%

Dew point: 41 °F

Location of LondonLocation

Historic Weather in London — Graph

°F

London temperature yesterday

Maximum temperature yesterday: 64 °F (at 2:50 PM)
Minimum temperature yesterday: 43 °F (at 5:50 AM)
Average temperature yesterday: 53 °F

Past Weeks' High & Low Weather Summary

 TemperatureHumidityPressure
High77 °F (Sep 18, 2:50 PM)100% (Sep 16, 1:50 AM)30.33 "Hg (Sep 16, 1:50 AM)
Low43 °F (Sep 22, 5:50 AM)40% (Sep 8, 5:50 PM)29.77 "Hg (Sep 18, 2:50 PM)
Average61 °F76%30.10 "Hg
* Reported Sep 8 3:50 PM — Sep 23 3:50 PM, London, Weather by CustomWeather, © 2014

Note: Actual official high and low records may vary slightly from our data, if they occured in-between our weather recording intervals... More about our weather records

Advertising

London weather history for previous 24 hours

 ConditionsComfort  
Time TempWeatherWind HumidityBarometerVisibility
3:50 PM
Sep 23
66 °FPartly sunny.9 mph46%30.07 "HgN/A
2:50 PM64 °FPartly sunny.8 mph49%30.09 "HgN/A
1:50 PM64 °FPartly sunny.8 mph46%30.12 "HgN/A
12:50 PM64 °FPartly sunny.7 mph49%30.15 "HgN/A
11:50 AM61 °FSunny.6 mph63%30.15 "HgN/A
10:50 AM59 °FPassing clouds.3 mph63%30.15 "HgN/A
9:50 AM54 °FScattered clouds.2 mph82%30.18 "Hg5 mi
8:50 AM48 °FFog.1 mph94%30.18 "Hg3 mi
7:50 AM43 °FFog.No wind100%30.18 "Hg3 mi
6:50 AM43 °FFog.No wind93%30.18 "Hg2 mi
5:50 AM43 °FClear.2 mph93%30.18 "Hg5 mi
4:50 AM43 °FClear.1 mph93%30.18 "Hg1 mi
3:50 AM43 °FClear.2 mph93%30.18 "Hg4 mi
2:50 AM45 °FClear.No wind100%30.21 "Hg2 mi
1:50 AM45 °FClear.2 mph100%30.21 "Hg2 mi
12:50 AM46 °FClear.2 mph93%30.21 "Hg4 mi
11:50 PM
Sep 22
48 °FClear.1 mph94%30.24 "Hg3 mi
10:50 PM50 °FClear.No wind88%30.24 "Hg10 mi
9:50 PM50 °FClear.2 mph94%30.24 "Hg10 mi
8:50 PM54 °FClear.2 mph82%30.24 "Hg10 mi
7:50 PM57 °FSunny.2 mph72%30.24 "Hg10 mi
6:50 PM61 °FSunny.2 mph63%30.24 "Hg10 mi
5:50 PM64 °FSunny.5 mph49%30.24 "Hg10 mi
Weather by CustomWeather, © 2014

See weather overviewHow to use our weather pages